Weather Roundup
Issued by NWS Chicago, IL

Home | Current Version | Previous Version | Text Only | Print | Product List | Glossary On
Versions: 1 2 3 4 5 6 7 8 9 10 11 12 13 14 15 16 17 18 19 20 21 22 23 24 25 26 27 28 29 30 31 32 33 34 35 36 37 38 39 40 41 42 43 44 45 46 47 48 49 50
000
NZUS59 KLOT 260010
HRRLOT

CHICAGO AREA WEATHER ROUNDUP
NATIONAL WEATHER SERVICE CHICAGO/ROMEOVILLE IL
600 PM CST SUN JAN 25 2015

NOTE: "FAIR" INDICATES FEW OR NO CLOUDS BELOW 12,000 FEET WITH NO
SIGNIFICANT WEATHER AND/OR OBSTRUCTIONS TO VISIBILITY.

* THESE STATIONS ARE NOT UNDER NWS QUALITY CONTROL. THEY ALSO MAY NOT
  REPORT WEATHER SUCH AS PRECIPITATION OR FOG.

ILZ005-006-012>014-019>023-260100-
NORTHEAST ILLINOIS

CITY           SKY/WX    TMP DP  RH WIND       PRES   REMARKS
OHARE          CLOUDY    26  17  68 N16       29.94R WCI  14
6HR MIN TEMP:  26; 6HR MAX TEMP:  30; 6HR PCP:  0.01;

MIDWAY         FLURRIES  29  20  69 N18G26    29.94R WCI  16
6HR MIN TEMP:  29; 6HR MAX TEMP:  33; 6HR PCP: TRACE;

AURORA         CLOUDY    26  17  68 NE20      29.95R WCI  12
6HR MIN TEMP:  26; 6HR MAX TEMP:  32; 6HR PCP: TRACE;

LANSING*       CLOUDY    28  22  81 NE17G24   29.92R WCI  15
JOLIET*        CLOUDY    27  20  75 NE15G25   29.94R WCI  15
WAUKEGAN       PTCLDY    24  14  65 N13       29.97R WCI  12
6HR MIN TEMP:  24; 6HR MAX TEMP:  28;

DUPAGE AIRPORT CLOUDY    25  17  72 NE16G25   29.93R WCI  12
6HR MIN TEMP:  25; 6HR MAX TEMP:  30; 6HR PCP: TRACE;

WHEELING       MOCLDY    26  16  65 N10       29.98R WCI  16
6HR MIN TEMP:  26; 6HR MAX TEMP:  29; 6HR PCP: TRACE;

KANKAKEE*      CLOUDY    28  25  86 N18G26    29.90R WCI  15
MORRIS*        CLOUDY    28  22  79 NE13G20   29.93R WCI  18
LEWIS AIRPORT* CLOUDY    27  20  74 NE18G28   29.93R WCI  14
NORTHERLY IS     N/A     28  20  71 NE18        N/A  WCI  15
$$

WIZ051-052-058>065-066-070>072-260100-
SOUTHEAST WISCONSIN

CITY           SKY/WX    TMP DP  RH WIND       PRES   REMARKS
MILWAUKEE      MOCLDY    25  13  60 N17       30.00R WCI  12
6HR MIN TEMP:  24; 6HR MAX TEMP:  26;

KENOSHA*       PTCLDY    23  15  71 N12       29.98R WCI  12
RACINE*        PTCLDY    25  14  63 N16G22    30.00R WCI  12
BURLINGTON     CLEAR     20  12  71 N9        29.99R WCI   9
WAUKESHA       CLEAR     19  10  68 NE16G25   30.01R WCI   5
WEST BEND      PTCLDY    21  12  68 N8        30.01R WCI  12
$$

INZ001>003-010>013-019-020-260100-
NORTHWEST INDIANA

CITY           SKY/WX    TMP DP  RH WIND       PRES   REMARKS
GARY*          CLOUDY    28  19  69 N14G29    29.93R WCI  17
MICHIGAN CITY* NOT AVBL
RENSSELAER*    NOT AVBL
VALPARAISO     CLOUDY    25  20  81 NE12G20   29.90R WCI  14
$$

LMZ740>746-260100-
SOUTHERN LAKE MICHIGAN

STATION/POSITION TIME  SKY/WX   TEMP WIND        PRES    VSBY
                                AIR  DIR/SP/G
                 (UTC)          (F)  (DEG/KT/KT) (MB)    (MI)
HARRISON CRIB    0000            27   30/ 23/ 25   N/A
BURNHAM HARBOR   0000            28   30/ 17/ 21   N/A
CALUMET HARBOR   0000            27   10/ 19/ 25   N/A
BURNS HARBOR     NOT AVBL
MICHIGAN CITY    0000            25   30/ 21/ 23   N/A
$$

ABBREVIATIONS USED IN REMARKS
   TC - TEMPERATURE IN CELSIUS
  WCI - WIND CHILL INDEX
   HX - HEAT INDEX
  VSB - VISIBILITY
$$


USA.gov is the U.S. government's official web portal to all federal, state and local government web resources and services.